Location: Norwich
(42.5310°N, 75.5240°W)
Time: 20:31:05
(UTC-04:00)

Envisat - Pass Details

Date: 31 March 2019
Orbit: 764 x 766 km, 98.2° (Epoch: 20 April)

Event Time Altitude Azimuth Distance (km) Brightness Sun altitude
Rises 20:43:40 0° 204° (SSW) 3,219 6.3 -14.6°
Reaches altitude 10° 20:46:32 10° 221° (SW) 2,297 5.7 -15.1°
Maximum altitude 20:50:15 20° 268° (W) 1,704 5.7 -15.7°
Drops below altitude 10° 20:53:58 10° 315° (NW) 2,309 6.5 -16.3°
Sets 20:56:53 0° 332° (NNW) 3,240 7.1 -16.8°
